Zurück zum Katalog

SPACEMOBILE-SSR05 DEB

AktivVLEO
NORAD 62373·DEBRIS·🇺🇸 United States

Gestartet Sep 12, 2024 von Cape Canaveral Space Force Station

Loading…

Nächste Überflüge (nächste 24 Stunden)

TLE

AktuellSource: Space-Track

Epoche: Sep 14, 2026, 07:58 UTC

1 62373U 24163K   26257.33247608  .00009036  00000-0  26729-3 0  9999
2 62373  52.9731 225.0563 0008982  72.8585 287.3399 15.35653315111815

Verfolge SPACEMOBILE-SSR05 DEB in Echtzeit mit AllMySat

Download on the App Store